Home   Weather   Magdeburg   Past weeks

Flag for Germany Past Weather in Magdeburg, Saxony-Anhalt, Germany — Yesterday and Last 2 Weeks

Now
70 °F

Scattered showers. Broken clouds.


Feels Like: 70 °F
Forecast: 60 / 74 °F
Wind: 6 mph from Southeast

Location: Leipzig-Schkeuditz

Current Time: Jul 22, 2017 at 9:06:31 am

Latest Report: Jul 22, 2017 at 8:20 am


Visibility: N/A

Pressure: 29.92 "Hg

Humidity: 78%

Dew Point: 63 °F

Location of MagdeburgLocation

Past Weather in Magdeburg — Graph

°F

Magdeburg Temperature Yesterday

Maximum temperature yesterday: 81 °F (at 4:20 pm)
Minimum temperature yesterday: 61 °F (at 5:50 am)
Average temperature yesterday: 71 °F

High & Low Weather Summary for the Past Weeks

 TemperatureHumidityPressure
High86 °F (Jul 7, 2:50 pm)100% (Jul 10, 7:20 am)30.24 "Hg (Jul 10, 7:20 am)
Low50 °F (Jul 13, 4:50 am)35% (Jul 7, 3:50 pm)29.68 "Hg (Jul 12, 6:50 pm)
Average67 °F73%29.98 "Hg
* Reported Jul 7 7:20 am — Jul 22 7:50 am, Magdeburg. Weather by CustomWeather, © 2017

Note: Actual official high and low records may vary slightly from our data, if they occured in-between our weather recording intervals... More about our weather records

Advertising

Magdeburg Weather History for the Previous 24 Hours

Scroll right to see more
 ConditionsComfort  
Time TempWeatherWind HumidityBarometerVisibility
7:50 am
Sat, Jul 22
68 °FScattered showers. Broken clouds.7 mph78%29.89 "HgN/A
7:20 am66 °FBroken clouds.9 mph83%29.89 "HgN/A
6:50 am66 °FScattered showers. Broken clouds.9 mph83%29.89 "HgN/A
6:20 am66 °FScattered showers. Broken clouds.12 mph83%29.89 "HgN/A
5:50 am66 °FThundershowers. Broken clouds.12 mph83%29.89 "HgN/A
5:20 am66 °FPartly sunny.12 mph83%29.89 "HgN/A
4:50 am66 °FClear.12 mph83%29.89 "Hg10 mi
4:20 am66 °FClear.12 mph83%29.89 "Hg10 mi
3:50 am66 °FClear.10 mph83%29.89 "Hg10 mi
3:20 am66 °FClear.8 mph83%29.89 "Hg10 mi
2:50 am66 °FClear.12 mph83%29.89 "Hg10 mi
2:20 am68 °FClear.12 mph78%29.89 "Hg10 mi
1:50 am68 °FClear.10 mph78%29.92 "Hg10 mi
1:20 am66 °FClear.8 mph83%29.92 "Hg10 mi
12:50 am68 °FClear.9 mph78%29.92 "Hg10 mi
12:20 am68 °FClear.10 mph78%29.92 "Hg10 mi
11:50 pm
Fri, Jul 21
70 °FClear.10 mph69%29.92 "Hg10 mi
11:20 pm70 °FClear.10 mph69%29.89 "Hg10 mi
10:50 pm70 °FClear.9 mph64%29.92 "Hg10 mi
10:20 pm70 °FClear.8 mph64%29.92 "Hg10 mi
9:50 pm72 °FClear.7 mph61%29.92 "Hg10 mi
9:20 pm75 °FClear.7 mph50%29.92 "Hg10 mi
8:50 pm75 °FSunny.7 mph50%29.92 "Hg10 mi
8:20 pm77 °FSunny.7 mph47%29.89 "Hg10 mi
7:50 pm77 °FPassing clouds.5 mph47%29.89 "HgN/A
7:20 pm79 °FPassing clouds.5 mph45%29.92 "HgN/A
6:50 pm81 °FPassing clouds.3 mph39%29.92 "HgN/A
6:20 pm81 °FSunny.2 mph39%29.92 "Hg10 mi
5:50 pm81 °FSunny.1 mph39%29.92 "Hg10 mi
5:20 pm79 °FSunny.5 mph39%29.92 "Hg10 mi
4:50 pm81 °FSunny.2 mph39%29.92 "Hg10 mi
4:20 pm81 °FSunny.2 mph39%29.95 "Hg10 mi
3:50 pm79 °FSunny.2 mph42%29.95 "Hg10 mi
2:50 pm79 °FScattered clouds.5 mph48%29.95 "HgN/A
2:20 pm77 °FScattered clouds.5 mph51%29.98 "HgN/A
1:50 pm77 °FScattered clouds.2 mph51%29.98 "HgN/A
1:20 pm77 °FScattered clouds.3 mph54%29.98 "HgN/A
12:50 pm75 °FScattered clouds.3 mph54%29.98 "HgN/A
12:20 pm73 °FScattered clouds.2 mph61%29.98 "HgN/A
11:50 am73 °FScattered clouds.3 mph61%29.98 "HgN/A
11:20 am72 °FPassing clouds.5 mph61%29.98 "HgN/A
10:50 am72 °FPassing clouds.5 mph61%29.98 "HgN/A
10:20 am72 °FPassing clouds.6 mph69%29.98 "HgN/A
9:50 am70 °FScattered clouds.6 mph64%29.98 "HgN/A
9:20 am68 °FScattered clouds.7 mph69%29.98 "HgN/A
Weather by CustomWeather, © 2017

See weather overviewHow to use our weather pages